Location: Complexul Astronomic Baia Mare
(47.6577°N, 23.5639°E)
Time: 06:50:35
(UTC+03:00)

ISS - Pass Details

Date: 26 May 2017
Orbit: 402 x 408 km, 51.6° (Epoch: 29 May)

Event Time Altitude Azimuth Distance (km) Brightness Sun altitude
Rises 22:45:13 0° 247° (WSW) 2,327 0.2 -12.5°
Reaches altitude 10° 22:47:18 10° 248° (WSW) 1,468 -0.8 -12.7°
Maximum altitude 22:50:36 85° 338° (NNW) 414 -3.8 -13.1°
Drops below altitude 10° 22:53:54 10° 66° (ENE) 1,471 -1.1 -13.4°
Sets 22:55:59 0° 67° (ENE) 2,332 -0.1 -13.6°
